TimeCST,TemperatureF,Dew PointF,Humidity,Sea Level PressureIn,VisibilityMPH,Wind Direction,Wind SpeedMPH,Gust SpeedMPH,PrecipitationIn,Events,Conditions,WindDirDegrees,DateUTC
12:40 AM,68.0,59.0,73,30.08,7.0,Calm,Calm,-,N/A,,Overcast,0,2013-01-29 06:40:00
1:40 AM,69.8,57.2,64,30.07,7.0,East,3.5,-,N/A,,Mostly Cloudy,100,2013-01-29 07:40:00
2:40 AM,68.0,57.2,68,30.09,7.0,Calm,Calm,-,N/A,,Scattered Clouds,0,2013-01-29 08:40:00
3:40 AM,68.0,59.0,73,30.05,7.0,Calm,Calm,-,N/A,,Scattered Clouds,0,2013-01-29 09:40:00
4:40 AM,68.0,55.4,64,30.05,7.0,Calm,Calm,-,N/A,,Scattered Clouds,0,2013-01-29 10:40:00
5:40 AM,68.0,66.2,94,30.05,7.0,Calm,Calm,-,N/A,,Scattered Clouds,0,2013-01-29 11:40:00
6:40 AM,68.0,66.2,94,30.07,7.0,East,3.5,-,N/A,,Scattered Clouds,100,2013-01-29 12:40:00
7:48 AM,71.6,69.8,94,30.07,8.0,ESE,4.6,-,N/A,,Partly Cloudy,110,2013-01-29 13:48:00
8:49 AM,75.2,73.4,94,30.11,8.0,ESE,9.2,-,N/A,,Scattered Clouds,120,2013-01-29 14:49:00
9:53 AM,78.8,69.8,74,30.09,8.0,ESE,13.8,-,N/A,,Scattered Clouds,120,2013-01-29 15:53:00
10:47 AM,78.8,69.8,74,30.07,8.0,ESE,13.8,-,N/A,,Scattered Clouds,120,2013-01-29 16:47:00
11:43 AM,80.6,66.2,61,30.02,8.0,ESE,16.1,-,N/A,,Scattered Clouds,120,2013-01-29 17:43:00
12:46 PM,82.4,68.0,62,30.02,8.0,ESE,17.3,-,N/A,,Scattered Clouds,120,2013-01-29 18:46:00
1:48 PM,82.4,68.0,62,30.00,8.0,ESE,13.8,-,N/A,,Scattered Clouds,120,2013-01-29 19:48:00
2:47 PM,80.6,68.0,65,30.01,8.0,ESE,13.8,-,N/A,,Scattered Clouds,120,2013-01-29 20:47:00
3:42 PM,77.0,62.6,61,29.98,8.0,ESE,11.5,-,N/A,,Scattered Clouds,120,2013-01-29 21:42:00
4:42 PM,77.0,66.2,69,29.98,8.0,ESE,11.5,-,N/A,,Scattered Clouds,120,2013-01-29 22:42:00
5:44 PM,75.2,68.0,78,29.95,7.0,ESE,6.9,-,N/A,,Scattered Clouds,120,2013-01-29 23:44:00
6:47 PM,73.4,68.0,83,29.99,7.0,ESE,4.6,-,N/A,,Scattered Clouds,120,2013-01-30 00:47:00
7:46 PM,71.6,68.0,88,30.00,7.0,SE,4.6,-,N/A,,Scattered Clouds,130,2013-01-30 01:46:00
8:47 PM,71.6,68.0,88,30.03,7.0,SE,5.8,-,N/A,,Scattered Clouds,130,2013-01-30 02:47:00
9:45 PM,73.4,69.8,88,30.00,7.0,SE,8.1,-,N/A,,Scattered Clouds,130,2013-01-30 03:45:00
10:44 PM,73.4,69.8,88,30.00,7.0,SE,8.1,-,N/A,,Scattered Clouds,130,2013-01-30 04:44:00
11:51 PM,71.6,68.0,88,29.96,7.0,SE,5.8,-,N/A,,Scattered Clouds,130,2013-01-30 05:51:00